INMARSAT 4-F3

Last updated on Sat Oct 05 2024 00:02:37 GMT+0000 (Coordinated Universal Time)

1 33278U 08039A 24278.56307288 -.00000130 00000+0 00000+0 0 9998 2 33278 3.7888 28.2610 0002936 176.6220 273.5823 1.00272150 40329
UTC large
Height (km)
Speed (km/s)
/
Latitude / Longitude
Inclination (degrees)
Orbital Period (minutes)
Azimuth
Elevation
Range (km)
Doppler Factor

Next 0 passes for location: London (51.5072 / 0.1276)

Sorry there are no passes over London.